Weather History for CWSA - March, 2013

Change the Weather History Date:

Friday, March 22, 2013

  Actual Average Record
Temperature  
Mean Temperature 36 °F -  
Max Temperature 39 °F 36 °F 60 °F (2015)
Min Temperature 33 °F 28 °F 17 °F (2011)
Degree Days  
Heating Degree Days 29    
Moisture  
Dew Point 33 °F    
Average Humidity 84    
Maximum Humidity 100    
Minimum Humidity 52    
Precipitation  
Precipitation 0.31 in - - ()
Sea Level Pressure  
Sea Level Pressure 28.94 in    
Wind  
Wind Speed 35 mph ()    
Max Wind Speed 56 mph    
Max Gust Speed 68 mph    
Visibility 3.6 miles    
Events Rain    
Averages and records for this station are not official NWS values.
T = Trace of Precipitation, MM = Missing Value Source: Averaged Metar Reports

Daily Weather History Graph

Daily Weather History Graph

Search for Another Location

Airport or City:

Trip Planner

Search our weather history database for the weather conditions in past years. The results will help you decide how hot, cold, wet, or windy it might be!

Date:

Astronomy

Mar. 22, 2013 Rise Set
Actual Time 6:59 AM ADT 7:15 PM ADT
Civil Twilight 6:30 AM ADT 7:43 PM ADT
Nautical Twilight 5:56 AM ADT 8:17 PM ADT
Astronomical Twilight 5:22 AM ADT 8:52 PM ADT
Moon 2:29 PM ADT (3/22) 4:05 AM ADT (3/22)
Length of Visible Light 13h 13m
Length of Day
12h 15m
Waxing Gibbous, 76% of the Moon is Illuminated
Mar 22
Waxing Gibbous
Mar 27
Full
Apr 3
Last Quarter
Apr 10
New
Apr 18
First Quarter

Hourly Weather History & Observations

Time (ADT) Temp. Windchill Dew Point Humidity Pressure Visibility Wind Dir Wind Speed Gust Speed Precip Events Conditions
12:00 AM 39 °F - 38 °F 97% 28.75 in 1 mi East 48.3 mph - - Rain Light Rain
12:00 AM 39.2 °F 25.1 °F 39.2 °F 100% 28.75 in 1.4 mi East 46.0 mph 65.6 mph N/A Rain Light Rain
12:34 AM 41.0 °F 28.0 °F 41.0 °F 100% 28.59 in 1.1 mi East 42.6 mph 61.0 mph N/A Rain Light Rain
12:42 AM 41.0 °F 27.5 °F 39.2 °F 93% 28.54 in 1.4 mi ENE 47.2 mph 57.5 mph N/A   Drizzle
1:00 AM 44.6 °F 33.3 °F 44.6 °F 100% 28.50 in 1.1 mi East 40.3 mph 52.9 mph N/A   Drizzle
1:05 AM 44.6 °F 33.5 °F 44.6 °F 100% 28.49 in 1.0 mi East 39.1 mph 52.9 mph N/A   Drizzle
1:06 AM 44.6 °F 33.8 °F 44.6 °F 100% 28.48 in 1.0 mi ESE 36.8 mph 52.9 mph N/A   Drizzle
1:12 AM 44.6 °F 34.7 °F 44.6 °F 100% 28.47 in 0.8 mi ESE 29.9 mph 48.3 mph N/A   Light Drizzle
1:20 AM 44.6 °F 33.8 °F 42.8 °F 93% 28.45 in 0.8 mi ESE 36.8 mph 44.9 mph N/A   Overcast
1:37 AM 42.8 °F 32.1 °F 41.0 °F 93% 28.40 in 0.6 mi SSE 31.1 mph 42.6 mph N/A   Overcast
1:44 AM 41.0 °F 30.2 °F 41.0 °F 100% 28.38 in 0.6 mi SSE 27.6 mph 38.0 mph N/A   Overcast
2:00 AM 41.0 °F 30.0 °F 41.0 °F 100% 28.35 in 0.5 mi SSE 28.8 mph 34.5 mph N/A   Unknown
2:02 AM 41.0 °F 30.0 °F 41.0 °F 100% 28.35 in 0.4 mi SSE 28.8 mph 34.5 mph N/A   Unknown
2:06 AM 41.0 °F 30.2 °F 41.0 °F 100% 28.34 in 0.4 mi SSE 27.6 mph 34.5 mph N/A   Unknown
2:21 AM 41.0 °F 28.6 °F 39.2 °F 93% 28.32 in 0.8 mi South 38.0 mph 46.0 mph N/A   Unknown
2:23 AM 41.0 °F 28.8 °F 39.2 °F 93% 28.33 in 1.0 mi South 36.8 mph 46.0 mph N/A   Overcast
2:27 AM 39.2 °F 25.4 °F 39.2 °F 100% 28.33 in 1.5 mi South 43.7 mph 56.4 mph N/A   Overcast
2:28 AM 39.2 °F 25.7 °F 39.2 °F 100% 28.32 in 1.5 mi South 41.4 mph 56.4 mph N/A   Overcast
2:29 AM 39.2 °F 25.5 °F 39.2 °F 100% 28.32 in 1.5 mi South 42.6 mph 56.4 mph N/A   Overcast
2:52 AM 39.2 °F 25.4 °F 39.2 °F 100% 28.34 in 1.8 mi SSW 43.7 mph 52.9 mph N/A   Overcast
3:00 AM 39 °F - 38 °F 94% 28.36 in 2 mi SSW 47.2 mph - -   Unknown Precipitation
3:00 AM 39.2 °F 24.8 °F 37.4 °F 93% 28.36 in 1.6 mi SSW 48.3 mph 59.8 mph N/A   Overcast
3:17 AM 37.4 °F 21.8 °F 35.6 °F 93% 28.42 in 1.5 mi SSW 51.8 mph 62.1 mph N/A   Overcast
3:30 AM 37.4 °F 22.4 °F 35.6 °F 93% 28.47 in 1.4 mi SW 47.2 mph 61.0 mph N/A   Unknown
3:34 AM 35.6 °F 19.3 °F 33.8 °F 93% 28.48 in 1.2 mi SW 51.8 mph 62.1 mph N/A   Overcast
4:00 AM 35.6 °F 19.0 °F 32.0 °F 87% 28.61 in 1.0 mi West 54.1 mph 67.9 mph N/A   Overcast
4:01 AM 35.6 °F 18.7 °F 32.0 °F 87% 28.61 in 1.0 mi West 56.4 mph 67.9 mph N/A   Overcast
4:04 AM 33.8 °F 16.4 °F 32.0 °F 93% 28.62 in 0.6 mi West 54.1 mph 67.9 mph N/A   Unknown
4:05 AM 33.8 °F 16.3 °F 32.0 °F 93% 28.63 in 0.6 mi West 55.2 mph 67.9 mph N/A   Unknown
4:07 AM 33.8 °F 16.9 °F 32.0 °F 93% 28.64 in 0.6 mi West 50.6 mph 67.9 mph N/A   Unknown
4:34 AM 33.8 °F 16.6 °F 30.2 °F 87% 28.76 in 1.0 mi West 52.9 mph 65.6 mph N/A   Unknown
4:51 AM 33.8 °F 17.3 °F 30.2 °F 87% 28.83 in 2.1 mi West 47.2 mph 64.4 mph N/A   Unknown
4:57 AM 33.8 °F 17.1 °F 30.2 °F 87% 28.85 in 2.4 mi West 48.3 mph 64.4 mph N/A   Unknown
5:00 AM 33.8 °F 17.1 °F 30.2 °F 87% 28.86 in 2.5 mi West 48.3 mph 64.4 mph N/A   Unknown
5:25 AM 33.8 °F 17.8 °F 30.2 °F 87% 28.93 in 3.0 mi West 43.7 mph 64.4 mph N/A   Unknown
6:00 AM 34 °F - 29 °F 77% 29.01 in 3 mi West 43.7 mph - -  
6:00 AM 33.8 °F 18.3 °F 30.2 °F 87% 29.01 in 3.5 mi West 40.3 mph 58.7 mph N/A   Unknown
6:22 AM 35.6 °F 21.0 °F 32.0 °F 87% 29.08 in 3.5 mi West 39.1 mph 51.8 mph N/A   Unknown
6:25 AM 35.6 °F 21.1 °F 32.0 °F 87% 29.09 in 3.5 mi West 38.0 mph 49.5 mph N/A   Unknown
6:32 AM 35.6 °F 21.5 °F 32.0 °F 87% 29.10 in 4.0 mi West 35.7 mph 49.5 mph N/A   Overcast
6:33 AM 35.6 °F 21.5 °F 30.2 °F 81% 29.10 in 4.0 mi West 35.7 mph 49.5 mph N/A   Overcast
6:34 AM 35.6 °F 21.7 °F 30.2 °F 81% 29.11 in 4.0 mi West 34.5 mph 49.5 mph N/A   Overcast
6:39 AM 35.6 °F 22.1 °F 32.0 °F 87% 29.12 in 4.0 mi West 32.2 mph 46.0 mph N/A   Overcast
7:00 AM 35.6 °F 21.7 °F 30.2 °F 81% 29.16 in 4.0 mi West 34.5 mph 48.3 mph N/A   Overcast
8:00 AM 33.8 °F 19.6 °F 28.4 °F 81% 29.23 in 5.0 mi West 32.2 mph 42.6 mph N/A   Unknown
8:41 AM 35.6 °F 23.2 °F 28.4 °F 75% 29.26 in 6.0 mi West 26.5 mph 36.8 mph N/A   Mostly Cloudy
9:00 AM 35 °F - 28 °F 67% 29.26 in 6 mi West 27.6 mph - -   Unknown Precipitation
9:00 AM 35.6 °F 23.0 °F 28.4 °F 75% 29.26 in 6.0 mi West 27.6 mph 36.8 mph N/A   Scattered Clouds
9:20 AM 35.6 °F 23.2 °F 28.4 °F 75% 29.28 in 7.0 mi West 26.5 mph 39.1 mph N/A   Mostly Cloudy
9:40 AM 33.8 °F 21.0 °F 30.2 °F 87% 29.30 in 6.0 mi West 25.3 mph 38.0 mph N/A   Overcast
10:00 AM 33.8 °F 20.3 °F 28.4 °F 81% 29.32 in 6.0 mi West 28.8 mph 39.1 mph N/A   Overcast
10:23 AM 33.8 °F 21.3 °F 28.4 °F 81% 29.32 in 7.0 mi West 24.2 mph 34.5 mph N/A   Overcast
11:00 AM 33.8 °F 21.3 °F 28.4 °F 81% 29.37 in 7.0 mi West 24.2 mph 31.1 mph N/A   Overcast
12:00 PM 36 °F - 26 °F 57% 29.39 in 7 mi West 25.3 mph - -   Overcast
12:00 PM 37.4 °F 25.4 °F 26.6 °F 65% 29.39 in 8.0 mi West 27.6 mph 34.5 mph N/A   Overcast
1:00 PM 37.4 °F 25.9 °F 28.4 °F 70% 29.40 in 7.0 mi West 25.3 mph 32.2 mph N/A   Scattered Clouds
1:25 PM 37.4 °F 26.6 °F 28.4 °F 70% 29.40 in 7.0 mi West 21.9 mph 28.8 mph N/A   Mostly Cloudy
2:00 PM 37.4 °F 26.4 °F 26.6 °F 65% 29.40 in 8.0 mi West 23.0 mph 31.1 mph N/A   Mostly Cloudy
3:00 PM 38 °F - 27 °F 52% 29.42 in 6 mi WNW 21.9 mph - -  
3:00 PM 39.2 °F 29.0 °F 26.6 °F 61% 29.42 in 6.0 mi WNW 21.9 mph 28.8 mph N/A   Mostly Cloudy
3:33 PM 37.4 °F 26.1 °F 24.8 °F 60% 29.42 in 7.0 mi West 24.2 mph 29.9 mph N/A   Partly Cloudy
4:00 PM 37.4 °F 26.9 °F 26.6 °F 65% 29.43 in 7.0 mi West 20.7 mph - N/A   Partly Cloudy
4:09 PM 37.4 °F 26.9 °F 26.6 °F 65% 29.44 in 6.0 mi WNW 20.7 mph - N/A   Mostly Cloudy
5:00 PM 35.6 °F 25.2 °F 24.8 °F 65% 29.46 in 8.0 mi West 18.4 mph 24.2 mph N/A   Overcast
5:27 PM 35.6 °F 25.9 °F 26.6 °F 70% 29.45 in 8.0 mi WNW 16.1 mph 21.9 mph N/A   Overcast
6:00 PM 36 °F - 25 °F 52% 29.46 in 7 mi WNW 15.0 mph - -  
6:00 PM 35.6 °F 26.6 °F 24.8 °F 65% 29.46 in 7.0 mi WNW 13.8 mph 21.9 mph N/A   Mostly Cloudy
7:00 PM 35.6 °F 26.6 °F 26.6 °F 70% 29.47 in 7.0 mi WNW 13.8 mph - N/A   Partly Cloudy
8:00 PM 35.6 °F 29.2 °F 26.6 °F 70% 29.51 in 6.0 mi West 8.1 mph - N/A   Clear
9:00 PM 35 °F - 29 °F 71% 29.52 in 3 mi WSW 6.9 mph - -  
9:00 PM 33.8 °F 27.7 °F 28.4 °F 81% 29.52 in 3.5 mi WSW 6.9 mph - N/A   Clear
10:00 PM 35.6 °F 29.2 °F 30.2 °F 81% 29.53 in 3.5 mi SSW 8.1 mph - N/A   Clear
11:00 PM 35.6 °F 28.0 °F 32.0 °F 87% 29.53 in 5.0 mi SW 10.4 mph - N/A   Clear